Weather History for Rae Point, NT

Change the Weather History Date:

Thursday, November 7, 2013

  Actual Average Record
Temperature  
Mean Temperature -14 °F -  
Max Temperature -11 °F - - ()
Min Temperature -17 °F - - ()
Degree Days  
Heating Degree Days 79    
Moisture  
Dew Point -19 °F    
Average Humidity 75    
Maximum Humidity 80    
Minimum Humidity 62    
Precipitation  
Precipitation 0.00 in - - ()
Sea Level Pressure  
Sea Level Pressure 30.01 in    
Wind  
Wind Speed 11 mph ()    
Max Wind Speed 23 mph    
Max Gust Speed 22 mph    
T = Trace of Precipitation, MM = Missing Value Source: Averaged Metar Reports

Daily Weather History Graph

Daily Weather History Graph

Search for Another Location

Airport:

Trip Planner

Search our weather history database for the weather conditions in past years. The results will help you decide how hot, cold, wet, or windy it might be!

Date:

Astronomy

Nov. 07, 2013 Rise Set
Actual Time 11:14 AM MST 12:18 PM MST
Civil Twilight 8:44 AM MST 2:47 PM MST
Nautical Twilight 6:49 AM MST 4:41 PM MST
Astronomical Twilight 5:12 AM MST 6:18 PM MST
Moon No Moon Rise No Moon Set
Length of Visible Light 6h 02m
Length of Day
1h 04m
Waxing Crescent, 23% of the Moon is Illuminated
Nov 7
Waxing Crescent
Nov 9
First Quarter
Nov 17
Full
Nov 25
Last Quarter
Dec 2
New

Hourly Weather History & Observations

Time (MST) Temp. Windchill Dew Point Humidity Pressure Visibility Wind Dir Wind Speed Gust Speed Precip Events Conditions
12:00 AM -12.8 °F -33.2 °F -17.5 °F 80% 30.02 in - West 11.5 mph - N/A   Unknown
1:00 AM -13.4 °F -32.8 °F -18.4 °F 78% 30.01 in - West 10.4 mph - N/A   Unknown
2:00 AM -14.1 °F -35.7 °F -18.8 °F 79% 30.01 in - West 12.7 mph - N/A   Unknown
4:00 AM -14.6 °F - -19.5 °F 79% 30.02 in - ESE 2.3 mph - N/A   Unknown
5:00 AM -17 °F - -22 °F 65% 30.01 in - SW 6.9 mph - -  
5:00 AM -17.0 °F -33.4 °F -22.2 °F 77% 30.01 in - SW 6.9 mph - N/A   Unknown
6:00 AM -12.3 °F -30.4 °F -18.0 °F 76% 30.01 in - West 9.2 mph - N/A   Unknown
8:00 AM -12.8 °F -35.8 °F -18.6 °F 75% 30.00 in - WNW 15.0 mph 21.9 mph N/A   Unknown
9:00 AM -11.6 °F -34.2 °F -17.0 °F 77% 30.01 in - West 15.0 mph - N/A   Unknown
10:00 AM -13.0 °F -33.4 °F -18.9 °F 75% 30.02 in - West 11.5 mph 18.4 mph N/A   Unknown
11:00 AM -12 °F - -18 °F 62% 30.01 in - West 12.7 mph - -  
11:00 AM -12.3 °F -33.4 °F -17.9 °F 76% 30.01 in - West 12.7 mph - N/A   Unknown
12:00 PM -13.0 °F -40.6 °F -17.9 °F 79% 29.99 in - West 23.0 mph - N/A   Unknown
1:00 PM -12.1 °F -38.8 °F -17.5 °F 77% 29.99 in - West 21.9 mph - N/A   Unknown
2:00 PM -11.6 °F -31.6 °F -17.1 °F 76% 30.02 in - West 11.5 mph - N/A   Unknown
3:00 PM -12.5 °F -38.1 °F -18.2 °F 76% 30.01 in - WNW 19.6 mph - N/A   Unknown
4:00 PM -13.2 °F -37.0 °F -19.1 °F 75% 30.02 in - West 16.1 mph - N/A   Unknown
5:00 PM -15 °F - -20 °F 64% 30.01 in - West 18.4 mph - -  
5:00 PM -14.6 °F -40.3 °F -20.4 °F 75% 30.01 in - West 18.4 mph - N/A   Unknown
6:00 PM -15.2 °F -38.8 °F -20.9 °F 75% 30.01 in - West 15.0 mph - N/A   Unknown
7:00 PM -15.2 °F -40.3 °F -21.3 °F 74% 30.02 in - West 17.3 mph - N/A   Unknown
8:00 PM -15.5 °F -39.2 °F -21.6 °F 74% 30.03 in - WNW 15.0 mph - N/A   Unknown
9:00 PM -16.4 °F -40.4 °F -22.4 °F 74% 30.04 in - WNW 15.0 mph - N/A   Unknown
10:00 PM -17.7 °F -43.5 °F -23.6 °F 74% 30.04 in - WNW 17.3 mph - N/A   Unknown